Simultaneous Nadir Overpasses (SNOs) Predictions

Prediction of SNOs between GOES-15 and LANDSAT-8 Satellite Orbit:

Table of predicted SNOs for the next 14.0 days since TLE Epoch: 2/13/2021
Index Date Time (GOES-15) GOES-15 Lat,Lon LANDSAT-8 Lat,Lon Distance(km) Time Diff (sec)
1 02/13/2021 07:00:44 -0.14,-127.76 -0.97,-131.60 436.09 80
2 02/15/2021 06:48:33 -0.14,-127.84 -0.29,-128.65 92.19 80
3 02/17/2021 06:33:41 -0.14,-127.90 0.33,-125.69 251.37 80
4 02/17/2021 18:57:37 0.15,-127.99 0.73,-130.86 324.96 80
5 02/19/2021 18:42:45 0.14,-128.06 0.10,-127.90 17.86 80
6 02/21/2021 18:30:33 0.13,-128.11 -0.53,-124.94 359.97 80
7 02/22/2021 06:54:37 -0.15,-128.05 -0.58,-130.14 236.44 80
8 02/24/2021 06:39:45 -0.14,-128.10 0.06,-127.18 104.87 80
9 02/24/2021 19:03:40 0.15,-128.18 1.06,-132.33 472.33 80
10 02/26/2021 06:27:33 -0.14,-128.14 0.69,-124.22 445.83 80
11 02/26/2021 18:51:29 0.15,-128.23 0.37,-129.39 131.48 80
